User: anonymous   Login
Location: Unspecified
(21.1460°N, 0.0000°E)
Time: 18:19:03
(UTC+00:00)
Language:

Iridium 26 - Orbit

View from above orbital plane
View from above orbital plane
View from above satellite
View from above satellite

Ground track
Ground track

The orbit is defined by the following mean orbital elements,

1 24903U          26088.21010147 +.00000000 +00000-0 +13777-3 0 00009
2 24903  86.4011 350.8270 0002016  90.3795 269.7634 14.37434088    06
Epoch (UTC): 29 March 2026 05:02:32
Eccentricity: 0.0002016
inclination: 86.4011°
perigee height: 766 km
apogee height: 768 km
right ascension of ascending node: 350.8270°
argument of perigee: 90.3795°
revolutions per day: 14.37434088
mean anomaly at epoch: 269.7634°

The dashed part of the orbit path shows where the satellite is in the earth's shadow,  

DLR